Location: Oakhurst
(33.6448°N, 111.9543°W)
Time: 21:40:23
(UTC+00:00)

FO-99 - Pass Details

Date: 07 August 2021
Orbit: 471 x 503 km, 97.2° (Epoch: 25 September)

Event Time Altitude Azimuth Distance (km) Brightness Sun altitude
Exits shadow 03:31:33 - 176° (S) 1,840 ? -13.7°
Reaches altitude 10° 03:31:51 10° 177° (S) 1,710 ? -13.8°
Maximum altitude 03:35:31 66° 259° (W) 553 ? -14.4°
Drops below altitude 10° 03:39:12 10° 343° (NNW) 1,716 ? -15.1°
Sets 03:41:18 0° 346° (NNW) 2,601 ? -15.4°
